Meknes, Morocco

6:30 AM WET on January 22, 2017 (GMT +0000)
Meknes

Weather History for GMFM - May, 2013

Change the Weather History Date:

Wednesday, May 1, 2013

  Actual Average (GMFF) Record (GMFF)
Temperature  
Mean Temperature 54 °F -  
Max Temperature 67 °F 75 °F 107 °F (2008)
Min Temperature 41 °F 53 °F 37 °F (1998)
Degree Days  
Heating Degree Days 11    
Growing Degree Days 4 (Base 50)    
Moisture  
Dew Point 42 °F    
Average Humidity 63    
Maximum Humidity 87    
Minimum Humidity 34    
Precipitation  
Precipitation 0.00 in 0.05 in - ()
Sea Level Pressure  
Sea Level Pressure 29.97 in    
Wind  
Wind Speed 3 mph ()    
Max Wind Speed 12 mph    
Max Gust Speed -    
Visibility 6.1 miles    
Events      
Averages and records for this station are not official NWS values.
T = Trace of Precipitation, MM = Missing Value Source: Averaged Metar Reports

Daily Weather History Graph

Daily Weather History Graph

Search for Another Location

Airport or City:

Trip Planner

Search our weather history database for the weather conditions in past years. The results will help you decide how hot, cold, wet, or windy it might be!

Date:

Astronomy

May. 01, 2013 Rise Set
Actual Time 6:33 AM WEST 8:05 PM WEST
Civil Twilight 6:06 AM WEST 8:32 PM WEST
Nautical Twilight 5:34 AM WEST 9:04 PM WEST
Astronomical Twilight 5:01 AM WEST 9:38 PM WEST
Moon 1:03 AM WEST (5/1) 11:55 AM WEST (5/1)
Length of Visible Light 14h 25m
Length of Day
13h 32m
Waning Gibbous, 61% of the Moon is Illuminated
May 1
Waning Gibbous
May 2
Last Quarter
May 10
New
May 18
First Quarter
May 25
Full

Hourly Weather History & Observations

Time (WEST) Temp. Windchill Dew Point Humidity Pressure Visibility Wind Dir Wind Speed Gust Speed Precip Events Conditions
12:00 AM 48.2 °F - 41.0 °F 76% 29.98 in - Calm Calm - N/A   Clear
1:00 AM 46 °F - 40 °F 74% 30.01 in 6 mi Calm Calm - -  
1:00 AM 46.4 °F - 41.0 °F 81% 30.01 in - Calm Calm - N/A   Clear
2:00 AM 46.4 °F - 39.2 °F 76% 30.01 in - SE 2.3 mph - N/A   Clear
3:00 AM 44.6 °F - 39.2 °F 81% 30.01 in - ESE 2.3 mph - N/A   Clear
4:00 AM 43 °F - 39 °F 81% 29.99 in 6 mi ESE 4.6 mph - -  
4:00 AM 42.8 °F 40.1 °F 39.2 °F 87% 29.98 in - SE 4.6 mph - N/A   Clear
5:00 AM 42.8 °F 40.1 °F 39.2 °F 87% 29.98 in - SE 4.6 mph - N/A   Clear
6:00 AM 42.8 °F 40.1 °F 39.2 °F 87% 29.95 in - SE 4.6 mph - N/A   Clear
7:00 AM 42 °F - 38 °F 82% 29.99 in 6 mi SE 4.6 mph - -  
7:00 AM 42.8 °F 40.1 °F 39.2 °F 87% 29.95 in - SE 4.6 mph - N/A   Clear
8:00 AM 48.2 °F - 41.0 °F 76% 29.98 in - SE 3.5 mph - N/A   Clear
9:00 AM 51.8 °F - 42.8 °F 71% 29.98 in - ENE 3.5 mph - N/A   Clear
10:00 AM 57 °F - 43 °F 50% 29.96 in 6 mi ENE 3.5 mph - -  
10:00 AM 57.2 °F - 42.8 °F 59% 29.98 in - ENE 3.5 mph - N/A   Clear
11:00 AM 59.0 °F - 42.8 °F 55% 29.98 in 6.2 mi North 4.6 mph - N/A   Partly Cloudy
12:00 PM 60.8 °F - 44.6 °F 55% 29.98 in 6.2 mi NW 4.6 mph - N/A   Scattered Clouds
1:00 PM 63 °F - 44 °F 39% 29.93 in 6 mi North 4.6 mph - -   Partly Cloudy
1:00 PM 62.6 °F - 44.6 °F 52% 29.98 in 6.2 mi North 4.6 mph - N/A   Scattered Clouds
2:00 PM 64.4 °F - 44.6 °F 49% 29.95 in 6.2 mi WNW 3.5 mph - N/A   Scattered Clouds
3:00 PM 66.2 °F - 42.8 °F 43% 29.95 in 6.2 mi NNW 5.8 mph - N/A   Scattered Clouds
4:00 PM 64 °F - 42 °F 34% 29.90 in 6 mi NNW 6.9 mph - -   Mostly Cloudy
4:00 PM 64.4 °F - 42.8 °F 45% 29.95 in 6.2 mi NNW 6.9 mph - N/A   Mostly Cloudy
5:00 PM 68.0 °F - 42.8 °F 40% 29.95 in 6.2 mi WNW 5.8 mph - N/A   Mostly Cloudy
6:00 PM 62.6 °F - 42.8 °F 48% 29.95 in 6.2 mi NW 6.9 mph - N/A   Mostly Cloudy
7:00 PM 62 °F - 44 °F 40% 29.92 in 6 mi NW 8.1 mph - -   Mostly Cloudy
7:00 PM 62.6 °F - 44.6 °F 52% 29.95 in 6.2 mi NW 8.1 mph - N/A   Mostly Cloudy
8:00 PM 59.0 °F - 42.8 °F 55% 29.95 in 6.2 mi NW 11.5 mph - N/A   Scattered Clouds
9:00 PM 55.4 °F - 42.8 °F 63% 29.98 in 6.2 mi NW 8.1 mph - N/A   Partly Cloudy
10:00 PM 53 °F - 42 °F 57% 30.00 in 6 mi West 5.8 mph - -   Scattered Clouds
10:00 PM 51.8 °F - 42.8 °F 71% 30.01 in 6.2 mi West 5.8 mph - N/A   Partly Cloudy
11:00 PM 50.0 °F - 42.8 °F 76% 30.04 in 6.2 mi West 5.8 mph - N/A   Partly Cloudy